This demonstration page uses our WeatherBlox Daily Observations layout. Learn more.

Left ArrowRight Arrow

40.97296, -117.73568

Hourly Observations for May 2, 2022

Temp ( °F °C ) Dew Point ( °F °C ) Humidity (%) Winds ( mph kmh ) Pressure ( in mb ) Visibility ( mi km ) Precip ( " mm )
12:56 am 00:56 Clear 43 6.1 29 -1.7 58 58 S 13 20 29.94 1014 10 16 0.00 0.00
1:56 am 01:56 Clear 39 3.9 28 -2.2 65 65 S 10 17 29.93 1014 10 16 0.00 0.00
2:56 am 02:56 Clear 40 4.4 28 -2.2 63 63 S 13 20 29.89 1012 10 16 0.00 0.00
3:56 am 03:56 Clear 42 5.6 27 -2.8 55 55 S 12 19 29.85 1011 10 16 0.00 0.00
4:56 am 04:56 Clear 43 6.1 27 -2.8 53 53 S 7 11 29.83 1010 10 16 0.00 0.00
5:56 am 05:56 Sunny 42 5.6 27 -2.8 55 55 undefined N/A 29.82 1010 10 16 0.00 0.00
6:56 am 06:56 Sunny 45 7.2 28 -2.2 52 52 S 16 26 29.76 1008 10 16 0.00 0.00
7:56 am 07:56 Sunny 49 9.4 30 -1.1 48 48 S 14 22 29.75 1008 10 16 0.00 0.00
8:56 am 08:56 Sunny 56 13.3 29 -1.7 36 36 SSW 17 28 29.72 1006 10 16 0.00 0.00
9:56 am 09:56 Mostly Cloudy 62 16.7 27 -2.8 26 26 S 12 19 29.70 1006 10 16 0.00 0.00
10:56 am 10:56 Mostly Cloudy 62 16.7 22 -5.6 21 21 WSW 16 26 29.68 1005 10 16 0.00 0.00
11:56 am 11:56 Mostly Cloudy 57 13.9 28 -2.2 33 33 WNW 25 41 29.72 1007 10 16 0.00 0.00
12:56 pm 12:56 Cloudy 48 8.9 35 1.7 61 61 WNW 13 20 29.80 1009 10 16 0.00 0.00
1:08 pm 13:08 Cloudy with Light Rain 48 8.9 35 1.7 61 61 W 14 22 29.78 1008 10 16 0.00 0.00
1:17 pm 13:17 Cloudy 48 8.9 34 1.1 58 58 WSW 16 26 29.78 1008 10 16 0.00 0.00
1:56 pm 13:56 Cloudy 54 12.2 33 0.6 45 45 W 8 13 29.77 1008 10 16 0.00 0.00
2:56 pm 14:56 Cloudy 53 11.7 28 -2.2 38 38 NW 22 35 29.77 1008 10 16 0.00 0.00
3:56 pm 15:56 Cloudy 57 13.9 26 -3.3 30 30 WNW 15 24 29.77 1008 10 16 0.00 0.00
4:56 pm 16:56 Mostly Cloudy 52 11.1 13 -10.6 21 21 W 22 35 29.80 1009 10 16 0.00 0.00
5:56 pm 17:56 Mostly Sunny 53 11.7 8 -13.3 16 16 W 20 31 29.82 1010 10 16 0.00 0.00
6:56 pm 18:56 Mostly Sunny 50 10 18 -7.8 28 28 NW 22 35 29.86 1011 10 16 0.00 0.00
7:56 pm 19:56 Mostly Cloudy 44 6.7 24 -4.4 45 45 N 14 22 29.90 1013 10 16 0.00 0.00
8:56 pm 20:56 Mostly Cloudy 43 6.1 24 -4.4 47 47 NW 16 26 29.91 1013 10 16 0.00 0.00
9:56 pm 21:56 Cloudy 43 6.1 25 -3.9 49 49 NNW 6 9 29.93 1013 10 16 0.00 0.00
10:56 pm 22:56 Mostly Cloudy 41 5 26 -3.3 55 55 NNW 10 17 29.95 1014 10 16 0.00 0.00
11:56 pm 23:56 Cloudy 41 5 26 -3.3 55 55 NNW 6 9 29.98 1015 10 16 0.00 0.00

Powered by AerisWeather